STARLINK-37519, 69298

Orbit data source: Space-Track

STARLINK-37519, 69298 is a payload satellite owned by SpaceX/Seattle (US) in SSO that was launched on Sat, 30 May 2026 UTC via an FALCON 9 launch vehicle from the Air Force Western Test Range (AFWTR). Payload-class satellites include a variety of spacecraft equipped with specific instruments for various scientific and technological missions. These include communications satellites like Starlink; space stations such as the ISS; scientific satellites like the Hubble; Earth observation satellites from companies like Planet Labs, Umbra, and HawkEye 360; GPS; miniature CubeSats for education and research; and military/defense satellites.

Loading next visibility...
Identifier
69298, 2026-119C
Orbit
SSO
Country
Flag of USUS
Related business
Manufacturer
SpaceX/Seattle
Mission
Operational Commercial Communications
Bus & Motor
STARLINK V2MO, Unknown motor
Mass
575 kg wet, ~530 kg dry
Launch date (UTC)
2026-05-30 (4 months ago)
Launch vehicle
FALCON 9
Launch site
Air Force Western Test Range (AFWTR)
Object type
Payload
Rocket body
Debris
Shape & HBR
Box + 1 Pan, 17.7 m
Radar Cross Section
41.120 m², Large (>1 m²)

Expand to show TLE details & history
Last TLE update: 16 hours ago

TLE from 16 hours ago
0 STARLINK-37519
1 69298U 26119C   26263.58764643  .00001228  00000-0  40352-4 0  9996
2 69298  97.2834 288.2765 0000763 108.1042 252.0284 15.33448823 18675
Epoch: 2026-09-20T14:06Z
TLE epoch observation values (Epoch: 2026-09-20T14:06:12.651Z)
Latitude
-0.00002°
Longitude
77.24411°
Altitude
468.805 km
Speed
7.632 km/s
True Right ascension
19h 13m 06s
True Declination
0° 00' 00"
Sunlit
Object was in daylight at epoch
Visualization orbit readout
Latitude
Unknown
Longitude
Unknown
Altitude
Unknown
Speed
Unknown
Apparent Right ascension
Unknown
Apparent Declination
Unknown
Sunlit
N/A
Visualization observer readout
Local Sidereal Time
23:12:23
Azimuth
Unknown
Elevation
Unknown
Doppler factor
Unknown
Orbital elements
Apogee altitude
462.996 km
Perigee altitude
461.953 km
Semi-major axis
6,840.611 km
Eccentricity
0.00008
Inclination
97.2834°
RAAN
288.2765°
Arg. of periapsis
108.1042°
True anomaly
252.02008°
Mean anomaly
252.0284°
Eccentric anomaly
252.02424°
Mean motion
3.8362 °/min
Orbital period
93.84 mins
BSTAR
0.000040352
Loading maneuver chart data...
Computing Atmospheric mass density...
Loading historical data...
Loading historical data...
Loading historical data...
Loading historical data...
Loading historical data...
Loading historical data...
Loading historical data...

Documentation

Showing up to 5 results
|